FW6321 Weather Reports


time (UTC)temp
C
wind
direction
speed
KPH
gust
KPH
rain 1hr
cm
rain 24hr
cm
rain mn
cm
humidity
%
barometer
mb
20260507085202 13 348 8.0 17.7 0.00 0.00 0.00 76 1017.0
20260507084701 13 316 8.0 20.9 0.00 0.00 0.00 75 1017.0
20260507084202 13 325 8.0 20.9 0.00 0.00 0.00 76 1017.0
20260507083802 12 26 6.4 16.1 0.00 0.00 0.00 76 1016.9
20260507082703 12 31 8.0 16.1 0.00 0.00 0.00 77 1017.0
20260507082230 12 335 9.7 16.1 0.00 0.00 0.00 76 1017.0
20260507081201 12 318 8.0 12.9 0.00 0.00 0.00 78 1017.0
20260507080752 12 12 8.0 16.1 0.00 0.00 0.00 79 1017.0
20260507075701 12 4 6.4 12.9 0.00 0.00 0.00 80 1016.9
20260507075200 12 19 6.4 12.9 0.00 0.00 0.00 81 1016.9
20260507074703 11 17 6.4 14.5 0.00 0.00 0.00 82 1016.9
20260507074202 11 287 6.4 14.5 0.00 0.00 0.00 83 1016.8
20260507073702 11 1 8.0 16.1 0.00 0.00 0.00 84 1016.8
20260507073201 11 18 6.4 16.1 0.00 0.00 0.00 85 1016.8
20260507072729 11 22 6.4 14.5 0.00 0.00 0.00 86 1016.8
20260507071702 11 343 6.4 14.5 0.00 0.00 0.00 87 1016.7
20260507071203 10 325 6.4 14.5 0.00 0.00 0.00 87 1016.7
20260507070822 10 33 4.8 11.3 0.00 0.00 0.00 88 1016.7
20260507070503 10 352 4.8 9.7 0.00 0.00 0.00 88 1016.7
20260507063703 10 325 8.0 12.9 0.00 0.00 0.00 90 1016.4
20260507063205 9 330 9.7 14.5 0.00 0.00 0.00 90 1016.4
20260507062702 9 319 8.0 14.5 0.00 0.00 0.00 90 1016.5
20260507062237 9 343 4.8 12.9 0.00 0.00 0.00 91 1016.5
20260507061202 8 330 8.0 14.5 0.00 0.00 0.00 92 1016.4
20260507060729 8 358 8.0 14.5 0.00 0.00 0.00 92 1016.3
20260507055701 8 352 6.4 14.5 0.00 0.00 0.00 93 1016.3
20260507055236 8 345 6.4 14.5 0.00 0.00 0.00 93 1016.2
20260507054201 7 320 4.8 11.3 0.00 0.00 0.00 94 1016.1
20260507053703 7 320 4.8 8.0 0.00 0.00 0.00 94 1016.1
20260507053201 7 330 4.8 9.7 0.00 0.00 0.00 94 1016.1
20260507052728 7 6 4.8 9.7 0.00 0.00 0.00 94 1016.1
20260507051700 7 352 4.8 9.7 0.00 0.00 0.00 94 1016.0
20260507051240 7 350 4.8 8.0 0.00 0.00 0.00 94 1015.9
20260507050203 7 319 4.8 11.3 0.00 0.00 0.00 94 1015.7
20260507045701 7 340 4.8 11.3 0.00 0.00 0.00 94 1015.7
20260507045202 7 325 4.8 8.0 0.00 0.00 0.00 94 1015.6
20260507044703 7 330 4.8 8.0 0.00 0.00 0.00 94 1015.6
20260507044203 7 335 4.8 8.0 0.00 0.00 0.00 94 1015.5
20260507043703 6 305 4.8 8.0 0.00 0.00 0.00 94 1015.5
20260507043203 6 330 4.8 8.0 0.00 0.00 0.00 94 1015.5
20260507042728 6 320 4.8 8.0 0.00 0.00 0.00 94 1015.5
20260507041705 6 325 3.2 6.4 0.00 0.00 0.00 93 1015.4
20260507041204 6 342 4.8 8.0 0.00 0.00 0.00 93 1015.4
20260507040703 6 335 4.8 8.0 0.00 0.00 0.00 93 1015.2
20260507040200 6 315 4.8 6.4 0.00 0.00 0.00 93 1015.3
20260507035703 6 6 4.8 6.4 0.00 0.00 0.00 93 1015.3
20260507035202 7 347 4.8 6.4 0.00 0.03 0.00 93 1015.3
20260507034659 7 321 4.8 6.4 0.00 0.03 0.00 93 1015.2
20260507034156 7 335 4.8 9.7 0.00 0.03 0.00 92 1015.2
20260507033656 7 325 4.8 9.7 0.00 0.03 0.00 92 1015.2
20260507033152 7 346 4.8 9.7 0.00 0.03 0.00 92 1015.2
20260507032653 7 330 4.8 9.7 0.00 0.03 0.00 92 1015.1
20260507032225 7 335 6.4 12.9 0.00 0.03 0.00 92 1015.1
20260507031148 7 319 4.8 8.0 0.00 0.03 0.00 91 1015.1
20260507030647 7 330 3.2 6.4 0.00 0.03 0.00 91 1015.1
20260507030143 7 339 4.8 8.0 0.00 0.03 0.00 91 1015.0
20260507025752 7 347 4.8 8.0 0.00 0.03 0.00 91 1014.9
20260507024141 7 335 4.8 8.0 0.00 0.03 0.00 89 1014.9
20260507023716 7 325 4.8 9.7 0.00 0.03 0.00 89 1014.9
20260507022638 7 341 6.4 11.3 0.00 0.03 0.00 89 1014.9
20260507022139 8 319 6.4 11.3 0.00 0.03 0.00 89 1014.9
20260507021706 8 347 6.4 12.9 0.00 0.03 0.00 88 1014.8
20260507020713 8 330 6.4 16.1 0.00 0.03 0.00 89 1014.7
20260507015637 8 16 8.0 14.5 0.00 0.03 0.00 90 1014.7
20260507015139 8 345 6.4 14.5 0.00 0.03 0.00 90 1014.6
20260507014637 8 0 6.4 14.5 0.00 0.03 0.00 90 1014.7
20260507014137 8 339 8.0 16.1 0.00 0.03 0.00 90 1014.6
20260507013634 8 353 8.0 16.1 0.00 0.03 0.00 91 1014.6
20260507013139 8 347 6.4 12.9 0.00 0.03 0.00 91 1014.6
20260507012636 8 330 6.4 14.5 0.00 0.03 0.00 90 1014.6
20260507012204 8 352 6.4 14.5 0.00 0.03 0.00 90 1014.6
20260507011136 8 7 8.0 14.5 0.00 0.03 0.00 90 1014.6
20260507010636 8 325 8.0 14.5 0.00 0.03 0.00 89 1014.6
20260507010133 8 325 8.0 16.1 0.00 0.03 0.00 89 1014.5
20260507005632 8 325 8.0 16.1 0.00 0.03 0.00 89 1014.5
20260507005134 9 325 8.0 16.1 0.00 0.03 0.00 89 1014.5
20260507004633 9 321 8.0 16.1 0.00 0.03 0.00 88 1014.4
20260507004204 9 359 8.0 17.7 0.00 0.03 0.00 88 1014.4
20260507003131 9 310 6.4 12.9 0.00 0.03 0.00 88 1014.3
20260507002629 9 16 8.0 16.1 0.00 0.03 0.00 88 1014.3
20260507002241 9 347 8.0 16.1 0.00 0.03 0.00 88 1014.2
20260507000629 9 335 8.0 16.1 0.00 0.03 0.00 87 1014.1
20260507000219 10 325 6.4 14.5 0.00 0.03 0.00 87 1014.2
20260506235130 10 330 8.0 17.7 0.00 0.03 0.00 86 1014.1
20260506234628 10 358 6.4 17.7 0.00 0.03 0.00 86 1014.1
20260506234128 10 330 6.4 14.5 0.00 0.03 0.00 86 1014.1
20260506233628 10 352 8.0 16.1 0.00 0.03 0.00 85 1014.0
20260506233128 10 352 8.0 16.1 0.00 0.03 0.00 85 1014.0
20260506232658 10 339 8.0 12.9 0.00 0.03 0.00 84 1013.9
20260506231629 10 303 8.0 14.5 0.00 0.03 0.00 84 1013.9
20260506231130 10 330 8.0 16.1 0.00 0.03 0.00 83 1013.8
20260506230631 10 330 8.0 16.1 0.00 0.03 0.00 83 1013.8
20260506230127 10 352 8.0 16.1 0.00 0.03 0.00 82 1013.8
20260506225701 10 330 8.0 16.1 0.00 0.03 0.00 82 1013.8
20260506224624 11 339 8.0 14.5 0.00 0.03 0.00 82 1013.8
20260506224126 11 339 8.0 16.1 0.00 0.03 0.00 81 1013.8
20260506223625 11 325 6.4 16.1 0.00 0.03 0.00 81 1013.8
20260506223124 11 325 6.4 12.9 0.00 0.03 0.00 80 1013.8
20260506222624 11 3 8.0 17.7 0.00 0.03 0.00 80 1013.8
20260506222128 11 330 9.7 17.7 0.00 0.03 0.00 79 1013.8
20260506221629 11 12 8.0 16.1 0.00 0.03 0.00 79 1013.8
20260506221125 11 355 6.4 14.5 0.00 0.03 0.00 80 1013.7
20260506220628 11 35 6.4 14.5 0.00 0.03 0.00 79 1013.7
20260506220127 11 348 8.0 17.7 0.00 0.03 0.00 79 1013.7
20260506215628 11 354 9.7 17.7 0.00 0.03 0.03 79 1013.6
20260506215125 11 335 8.0 17.7 0.00 0.03 0.03 79 1013.6
20260506214626 11 358 8.0 14.5 0.00 0.03 0.03 80 1013.5
20260506214123 11 339 9.7 16.1 0.00 0.03 0.03 80 1013.5
20260506213624 11 295 9.7 17.7 0.00 0.03 0.03 80 1013.5
20260506213122 11 343 8.0 17.7 0.00 0.03 0.03 80 1013.5
20260506212623 11 345 6.4 16.1 0.00 0.03 0.03 80 1013.5
20260506212122 11 310 4.8 12.9 0.00 0.03 0.03 80 1013.5
20260506211621 11 343 4.8 11.3 0.00 0.03 0.03 79 1013.4
20260506211120 11 325 6.4 12.9 0.00 0.03 0.03 79 1013.3
20260506210622 11 5 4.8 12.9 0.00 0.03 0.03 78 1013.3
20260506210120 11 325 4.8 8.0 0.00 0.03 0.03 77 1013.3
20260506205658 11 317 4.8 8.0 0.00 0.03 0.03 77 1013.2
20260506204619 11 350 8.0 19.3 0.00 0.03 0.03 75 1013.3
20260506204116 11 325 8.0 16.1 0.00 0.03 0.03 74 1013.3
20260506203613 11 318 6.4 16.1 0.00 0.03 0.03 73 1013.3
20260506203115 11 358 4.8 11.3 0.00 0.03 0.03 72 1013.2
20260506202615 11 359 6.4 12.9 0.00 0.03 0.03 71 1013.1
20260506202116 11 354 4.8 12.9 0.00 0.03 0.03 72 1013.1
20260506201617 11 335 4.8 11.3 0.00 0.03 0.03 72 1013.0
20260506201113 11 318 4.8 11.3 0.00 0.03 0.03 72 1013.0
20260506200613 11 350 3.2 6.4 0.00 0.03 0.03 74 1013.0
20260506200220 11 19 1.6 4.8 0.00 0.03 0.03 74 1013.1
20260506194606 11 23 6.4 14.5 0.00 0.03 0.03 75 1013.0
20260506194106 11 31 4.8 9.7 0.00 0.03 0.03 75 1013.0
20260506193606 11 27 3.2 6.4 0.00 0.03 0.03 75 1013.1
20260506193106 11 27 1.6 6.4 0.00 0.03 0.03 75 1013.0
20260506192605 11 62 1.6 6.4 0.00 0.03 0.03 75 1012.9
20260506192105 11 346 1.6 6.4 0.00 0.03 0.03 75 1012.8
20260506191633 11 64 3.2 4.8 0.00 0.03 0.03 75 1012.7
20260506190602 11 60 3.2 4.8 0.00 0.03 0.03 75 1012.6
20260506185603 11 79 1.6 3.2 0.00 0.03 0.03 74 1012.5
20260506185103 11 79 1.6 3.2 0.00 0.03 0.03 73 1012.4
20260506184559 11 79 1.6 4.8 0.00 0.03 0.03 72 1012.2
20260506184102 11 78 3.2 4.8 0.00 0.03 0.03 72 1012.2
20260506183600 11 79 3.2 4.8 0.00 0.03 0.03 73 1012.1
20260506183102 11 79 3.2 4.8 0.00 0.03 0.03 73 1012.1
20260506182601 12 68 1.6 4.8 0.00 0.03 0.03 73 1012.0
20260506182059 11 59 1.6 3.2 0.00 0.03 0.03 72 1012.0
20260506181600 12 59 3.2 4.8 0.00 0.03 0.03 72 1011.9
20260506181103 12 59 3.2 6.4 0.00 0.03 0.03 72 1011.8
20260506180557 12 77 3.2 6.4 0.00 0.03 0.03 72 1011.8
20260506180059 12 77 3.2 4.8 0.00 0.03 0.03 72 1011.8
20260506175635 11 58 3.2 4.8 0.00 0.03 0.03 72 1011.7
20260506174553 12 58 1.6 3.2 0.00 0.03 0.03 73 1011.5
20260506174052 12 58 1.6 6.4 0.00 0.03 0.03 74 1011.5
20260506173554 12 58 3.2 6.4 0.00 0.03 0.03 73 1011.4
20260506173052 12 65 1.6 4.8 0.00 0.03 0.03 74 1011.4
20260506172550 12 56 1.6 4.8 0.00 0.03 0.03 73 1011.3
20260506172051 12 52 3.2 4.8 0.00 0.03 0.03 73 1011.3
20260506171549 12 69 3.2 9.7 0.00 0.03 0.03 73 1011.2
20260506171117 12 70 3.2 9.7 0.00 0.03 0.03 73 1011.2
20260506170046 12 34 6.4 11.3 0.00 0.03 0.03 72 1011.1
20260506165552 12 76 6.4 12.9 0.00 0.03 0.03 71 1011.2
20260506165054 12 48 8.0 12.9 0.00 0.03 0.03 70 1011.1
20260506164622 12 62 9.7 16.1 0.00 0.03 0.03 70 1011.1
20260506163548 12 57 11.3 20.9 0.00 0.03 0.03 69 1011.2
20260506163121 12 62 12.9 20.9 0.00 0.03 0.03 67 1011.1
20260506162045 12 67 9.7 20.9 0.00 0.03 0.03 66 1011.1
20260506161547 12 347 8.0 17.7 0.00 0.03 0.03 69 1011.1
20260506161047 12 29 8.0 17.7 0.00 0.03 0.03 68 1011.1
20260506160543 12 33 8.0 17.7 0.00 0.03 0.03 68 1011.1
20260506160046 12 27 8.0 14.5 0.00 0.03 0.03 70 1011.2
20260506155542 12 71 8.0 16.1 0.00 0.03 0.03 68 1011.2
20260506155059 12 9 8.0 16.1 0.00 0.03 0.03 68 1011.1
20260506154621 12 308 11.3 16.1 0.00 0.03 0.03 68 1011.1
20260506153541 12 22 11.3 22.5 0.00 0.03 0.03 68 1011.1
20260506153048 12 71 9.7 19.3 0.00 0.03 0.03 69 1011.1
20260506152543 12 54 9.7 19.3 0.00 0.03 0.03 69 1011.0
20260506152059 12 51 9.7 19.3 0.00 0.03 0.03 69 1011.1
20260506151541 12 75 9.7 20.9 0.00 0.03 0.03 69 1011.0
20260506151042 12 93 11.3 20.9 0.00 0.03 0.03 69 1011.1
20260506150543 12 50 9.7 20.9 0.00 0.03 0.03 68 1011.1
20260506150042 12 28 9.7 20.9 0.00 0.03 0.03 69 1011.1
20260506145541 12 29 9.7 19.3 0.00 0.03 0.03 69 1011.0
20260506145047 12 47 9.7 19.3 0.00 0.03 0.03 69 1011.0
20260506144539 12 251 9.7 19.3 0.00 0.03 0.03 69 1011.0
20260506144113 12 41 9.7 19.3 0.00 0.03 0.03 69 1011.0
20260506143039 12 330 11.3 27.4 0.00 0.03 0.03 67 1011.0
20260506142541 12 4 11.3 24.1 0.00 0.03 0.03 66 1010.9
20260506142045 13 61 12.9 29.0 0.00 0.03 0.03 66 1010.9
20260506141539 13 67 14.5 29.0 0.00 0.03 0.03 65 1010.9
20260506141039 13 87 12.9 19.3 0.00 0.03 0.03 65 1010.8
20260506140537 13 46 12.9 29.0 0.00 0.03 0.03 62 1010.8
20260506140039 13 25 16.1 29.0 0.00 0.03 0.03 63 1010.8
20260506135538 13 335 16.1 29.0 0.00 0.03 0.03 60 1010.8
20260506135043 14 33 14.5 29.0 0.00 0.03 0.03 58 1010.7
20260506134617 14 28 14.5 25.7 0.00 0.03 0.03 58 1010.6
20260506133537 13 5 17.7 33.8 0.00 0.03 0.03 61 1010.6
20260506133038 13 345 16.1 32.2 0.00 0.03 0.03 62 1010.7
20260506132538 13 7 16.1 25.7 0.00 0.03 0.03 63 1010.6
20260506132042 13 354 12.9 25.7 0.00 0.03 0.03 64 1010.5
20260506131656 13 53 11.3 24.1 0.00 0.03 0.03 68 1010.5
20260506130114 13 6 9.7 22.5 0.00 0.03 0.03 71 1010.5
20260506125037 13 6 12.9 22.5 0.00 0.03 0.03 72 1010.5
20260506124538 13 357 12.9 24.1 0.00 0.03 0.03 72 1010.5
20260506124039 12 28 12.9 24.1 0.00 0.03 0.03 72 1010.5
20260506123539 12 357 14.5 24.1 0.00 0.03 0.03 72 1010.4
20260506123040 12 357 12.9 24.1 0.00 0.03 0.03 72 1010.4
20260506122536 12 27 12.9 24.1 0.00 0.03 0.03 72 1010.4
20260506122035 12 16 14.5 25.7 0.00 0.03 0.03 73 1010.3
20260506121538 12 1 14.5 27.4 0.00 0.03 0.03 74 1010.3
20260506121111 12 14 12.9 27.4 0.00 0.03 0.03 75 1010.3
20260506120037 12 314 14.5 27.4 0.00 0.03 0.03 75 1010.3
20260506115532 12 2 14.5 27.4 0.00 0.03 0.03 75 1010.3
20260506115117 12 335 14.5 25.7 0.00 0.03 0.03 77 1010.2
20260506114108 13 325 16.1 27.4 0.00 0.03 0.03 76 1010.4
20260506113035 13 10 14.5 29.0 0.00 0.03 0.03 76 1010.3
20260506112532 13 347 16.1 27.4 0.00 0.03 0.03 76 1010.3
20260506112032 13 6 16.1 29.0 0.00 0.03 0.03 75 1010.3
20260506111537 13 8 17.7 30.6 0.00 0.03 0.03 75 1010.3
20260506111033 13 3 16.1 30.6 0.00 0.03 0.03 75 1010.2
20260506110545 13 352 12.9 24.1 0.00 0.03 0.03 73 1010.3
20260506110034 13 325 11.3 24.1 0.00 0.03 0.03 74 1010.1
20260506105530 13 310 12.9 24.1 0.00 0.03 0.03 72 1010.3
20260506105033 13 339 16.1 29.0 0.00 0.03 0.03 71 1010.0
20260506104534 13 349 19.3 30.6 0.00 0.03 0.03 71 1010.1
20260506104034 13 31 17.7 30.6 0.00 0.03 0.03 70 1010.1
20260506103532 13 335 14.5 27.4 0.00 0.03 0.03 69 1010.2
20260506103031 13 31 14.5 24.1 0.00 0.03 0.03 69 1010.0
20260506102531 14 14 14.5 29.0 0.00 0.03 0.03 69 1009.9
20260506102034 14 21 14.5 29.0 0.00 0.03 0.03 69 1009.9
20260506101533 14 330 16.1 29.0 0.00 0.03 0.03 69 1010.0
20260506101038 14 358 14.5 29.0 0.00 0.03 0.03 69 1010.0
20260506100534 14 112 14.5 24.1 0.00 0.03 0.03 70 1009.9
20260506100033 14 24 14.5 30.6 0.00 0.03 0.03 71 1009.8
20260506095530 14 351 14.5 32.2 0.00 0.03 0.03 71 1009.9
20260506095032 13 349 16.1 32.2 0.00 0.03 0.03 70 1009.8
20260506094530 13 12 14.5 24.1 0.00 0.03 0.03 71 1009.8
20260506094033 13 321 16.1 27.4 0.00 0.03 0.03 71 1009.8
20260506093531 13 4 17.7 32.2 0.00 0.03 0.03 71 1010.0
20260506093031 13 21 16.1 32.2 0.00 0.03 0.03 72 1009.9
20260506092532 13 357 17.7 32.2 0.00 0.03 0.03 73 1009.8
20260506092028 13 19 17.7 32.2 0.00 0.03 0.03 73 1009.7
20260506091529 13 33 14.5 25.7 0.00 0.03 0.03 77 1009.7
20260506091030 13 339 14.5 25.7 0.00 0.03 0.03 81 1009.6
20260506090529 13 330 14.5 25.7 0.00 0.03 0.03 81 1009.5
20260506090027 13 335 14.5 25.7 0.00 0.03 0.03 82 1009.7